Weather History for KSKA - July, 2013

Change the Weather History Date:

Friday, July 19, 2013

  Actual Average (KGEG) Record (KGEG)
Temperature  
Mean Temperature 75 °F 71 °F  
Max Temperature 91 °F 85 °F 101 °F (1979)
Min Temperature 59 °F 57 °F 45 °F (1996)
Degree Days  
Heating Degree Days 0 1  
Month to date heating degree days 26  
Since 1 June heating degree days 162  
Since 1 July heating degree days 26  
Cooling Degree Days 10 7  
Month to date cooling degree days 94  
Year to date cooling degree days 157  
Since 1 June cooling degree days 143  
Growing Degree Days 25 (Base 50)    
Moisture  
Dew Point 45 °F    
Average Humidity 32    
Maximum Humidity 58    
Minimum Humidity 17    
Precipitation  
Precipitation 0.00 in 0.02 in 0.62 in (1924)
Month to date precipitation 0.44  
Year to date precipitation 9.32  
Snow  
Snow 0.00 in 0.00 in - ()
Month to date snowfall 0.0  
Since 1 June snowfall 0.0  
Since 1 July snowfall 0.0  
Snow Depth -    
Sea Level Pressure  
Sea Level Pressure 30.01 in    
Wind  
Wind Speed 3 mph (NNE)    
Max Wind Speed 8 mph    
Max Gust Speed -    
Visibility 10 miles    
Events      
T = Trace of Precipitation, MM = Missing Value Source: NWS Daily Summary

Daily Weather History Graph

Daily Weather History Graph

Search for Another Location

Airport or City:

Trip Planner

Search our weather history database for the weather conditions in past years. The results will help you decide how hot, cold, wet, or windy it might be!

Date:

Astronomy

Jul. 19, 2013 Rise Set
Actual Time 5:12 AM PDT 8:40 PM PDT
Civil Twilight 4:34 AM PDT 9:18 PM PDT
Nautical Twilight 3:44 AM PDT 10:08 PM PDT
Astronomical Twilight 2:37 AM PDT 11:14 PM PDT
Moon 5:47 PM PDT (7/19) 1:59 AM PDT (7/19)
Length of Visible Light 16h 43m
Length of Day
15h 27m
Waxing Gibbous, 87% of the Moon is Illuminated
Jul 19
Waxing Gibbous
Jul 22
Full
Jul 29
Last Quarter
Aug 6
New
Aug 14
First Quarter

Hourly Weather History & Observations

Time (PDT) Temp. Dew Point Humidity Pressure Visibility Wind Dir Wind Speed Gust Speed Precip Events Conditions
12:58 AM 67.1 °F 44.1 °F 43% 30.04 in 10.0 mi Calm Calm - N/A   Clear
1:58 AM 63.5 °F 43.9 °F 49% 30.03 in 10.0 mi North 2.3 mph - N/A   Clear
2:58 AM 60.1 °F 45.3 °F 58% 30.04 in 10.0 mi Calm Calm - N/A   Clear
3:58 AM 59.4 °F 44.8 °F 58% 30.04 in 10.0 mi NE 6.9 mph - N/A   Clear
4:58 AM 62.2 °F 44.6 °F 52% 30.04 in 10.0 mi ENE 5.8 mph - N/A   Clear
5:58 AM 61.9 °F 44.2 °F 52% 30.05 in 10.0 mi NNE 3.5 mph - N/A   Clear
6:58 AM 65.3 °F 48.7 °F 55% 30.05 in 10.0 mi NE 2.3 mph - N/A   Clear
7:58 AM 70.0 °F 51.3 °F 51% 30.06 in 10.0 mi ENE 4.6 mph - N/A   Clear
8:58 AM 73.9 °F 51.8 °F 46% 30.05 in 10.0 mi NE 6.9 mph - N/A   Clear
9:58 AM 77.9 °F 50.0 °F 38% 30.06 in 10.0 mi East 4.6 mph - N/A   Clear
10:58 AM 81.9 °F 48.6 °F 31% 30.04 in 10.0 mi NE 4.6 mph - N/A   Clear
11:58 AM 85.5 °F 47.8 °F 27% 30.03 in 10.0 mi Variable 3.5 mph - N/A   Clear
12:04 PM 86.0 °F 46.4 °F 25% 30.08 in 10.0 mi Variable 2.3 mph - N/A   Light Drizzle
12:11 PM 86.0 °F 46.4 °F 25% 30.08 in 10.0 mi Variable 2.3 mph - N/A   Clear
12:18 PM 87.8 °F 46.4 °F 24% 30.08 in 10.0 mi SSE 4.6 mph - N/A   Light Drizzle
12:32 PM 87.8 °F 44.6 °F 22% 30.07 in 10.0 mi WSW 2.3 mph - N/A   Clear
12:58 PM 88.0 °F 41.7 °F 20% 30.02 in 10.0 mi Variable 2.3 mph - N/A   Clear
1:58 PM 88.9 °F 44.4 °F 21% 30.01 in 10.0 mi Variable 3.5 mph - N/A   Clear
2:58 PM 89.8 °F 42.1 °F 19% 30.00 in 10.0 mi West 5.8 mph - N/A   Clear
3:09 PM 89.6 °F 41.0 °F 18% 30.03 in 10.0 mi SW 4.6 mph - N/A   Light Drizzle
3:16 PM 89.6 °F 41.0 °F 18% 30.03 in 10.0 mi Variable 4.6 mph - N/A   Clear
3:58 PM 90.1 °F 42.1 °F 19% 29.98 in 10.0 mi Variable 3.5 mph - 0.00 in   Clear
4:34 PM 89.6 °F 42.8 °F 20% 30.00 in 10.0 mi SE 5.8 mph - N/A   Light Drizzle
4:35 PM 89.6 °F 42.8 °F 20% 30.00 in 10.0 mi ESE 6.9 mph - N/A   Clear
4:58 PM 90.5 °F 42.4 °F 19% 29.95 in 10.0 mi NNE 2.3 mph - 0.00 in   Clear
5:58 PM 91.0 °F 40.8 °F 17% 29.93 in 10.0 mi West 8.1 mph - N/A   Clear
6:58 PM 89.2 °F 39.7 °F 18% 29.92 in 10.0 mi WNW 4.6 mph - N/A   Clear
7:58 PM 85.6 °F 42.1 °F 22% 29.92 in 10.0 mi WSW 4.6 mph - N/A   Clear
8:58 PM 79.0 °F 42.6 °F 27% 29.93 in 10.0 mi West 5.8 mph - N/A   Clear
9:58 PM 72.9 °F 49.1 °F 43% 29.94 in 10.0 mi SW 5.8 mph - N/A   Clear
10:58 PM 73.8 °F 42.1 °F 32% 29.92 in 10.0 mi SSW 2.3 mph - N/A   Clear
11:58 PM 68.2 °F 41.7 °F 38% 29.93 in 10.0 mi SW 5.8 mph - N/A   Clear